This demonstration page uses our WeatherBlox Daily Observations layout. Learn more.

Left ArrowRight Arrow

36.17497, -115.13722

Hourly Observations for September 7, 2020

Temp ( °F °C ) Dew Point ( °F °C ) Humidity (%) Winds ( mph kmh ) Pressure ( in mb ) Visibility ( mi km ) Precip ( " mm )
12:53 am 00:53 Clear 98 36.7 28 -2.2 8 8 NW 14 22 29.78 1008 N/A N/A
1:53 am 01:53 Clear 96 35.6 29 -1.7 9 9 NW 17 28 29.76 1008 N/A N/A
2:53 am 02:53 Clear 95 35 29 -1.7 9 9 N 9 15 29.76 1008 N/A N/A
3:53 am 03:53 Clear 95 35 29 -1.7 9 9 N 15 24 29.76 1008 N/A N/A
4:53 am 04:53 Clear 93 33.9 28 -2.2 10 10 NW 15 24 29.76 1008 N/A N/A
5:53 am 05:53 Clear 92 33.3 28 -2.2 10 10 NW 16 26 29.77 1008 N/A N/A
6:53 am 06:53 Sunny 92 33.3 28 -2.2 10 10 NW 15 24 29.78 1008 N/A N/A
7:53 am 07:53 Sunny 93 33.9 29 -1.7 10 10 NW 17 28 29.78 1008 N/A N/A
8:53 am 08:53 Sunny 95 35 30 -1.1 10 10 NNW 14 22 29.78 1008 N/A N/A
9:53 am 09:53 Sunny 99 37.2 30 -1.1 9 9 NNW 15 24 29.77 1008 N/A N/A
10:53 am 10:53 Sunny 102 38.9 29 -1.7 8 8 NNW 16 26 29.76 1008 N/A N/A
11:53 am 11:53 Sunny 104 40 28 -2.2 7 7 NNW 17 28 29.73 1007 N/A N/A
12:53 pm 12:53 Sunny 106 41.1 29 -1.7 7 7 NW 13 20 29.70 1006 N/A N/A
1:53 pm 13:53 Sunny 106 41.1 29 -1.7 7 7 NNW 15 24 29.68 1005 N/A N/A
2:53 pm 14:53 Sunny 106 41.1 29 -1.7 7 7 NW 20 31 29.64 1004 N/A N/A
3:53 pm 15:53 Sunny 105 40.6 30 -1.1 7 7 NW 13 20 29.62 1003 N/A N/A
4:53 pm 16:53 Sunny 103 39.4 30 -1.1 8 8 NNW 14 22 29.60 1002 N/A N/A
5:53 pm 17:53 Sunny 102 38.9 30 -1.1 8 8 NNW 9 15 29.58 1002 N/A N/A
6:53 pm 18:53 Sunny 98 36.7 31 -0.6 9 9 NNW 5 7 29.57 1001 N/A N/A
7:53 pm 19:53 Clear 94 34.4 32 undefined 11 11 N 3 6 29.57 1001 N/A N/A
8:53 pm 20:53 Clear 92 33.3 30 -1.1 11 11 WNW 5 7 29.56 1001 N/A N/A
9:53 pm 21:53 Clear 89 31.7 30 -1.1 12 12 NW 3 6 29.55 1001 N/A N/A
10:53 pm 22:53 Clear 87 30.6 30 -1.1 13 13 WNW 10 17 29.54 1000 N/A N/A
11:53 pm 23:53 Clear 88 31.1 28 -2.2 11 11 NW 7 11 29.53 1000 N/A N/A

Powered by AerisWeather